Regional Weather Roundup
Issued by NWS Upton, NY

Current Version | Previous Version | Graphics & Text | Print | Product List | Glossary Off
Versions: 1 2 3 4 5 6 7 8 9 10 11 12 13 14 15 16 17 18 19 20 21 22 23 24 25 26 27 28 29 30 31 32 33 34 35 36 37 38 39 40 41 42 43 44 45 46 47 48 49 50
000 ASUS41 KOKX 221506 RWROKX REGIONAL WEATHER ROUNDUP NATIONAL WEATHER SERVICE NEW YORK NY 1000 AM EST SUN JAN 22 2017 NOTE: "FAIR" INDICATES FEW OR NO CLOUDS BELOW 12,000 FEET WITH NO SIGNIFICANT WEATHER AND/OR OBSTRUCTIONS TO VISIBILITY. NYZ071-072-176-178-NJZ106-104-221600- NEW YORK CITY METRO AREA CITY SKY/WX TMP DP RH WIND PRES REMARKS Central Park CLOUDY 44 44 100 NE5 29.77R FOG Wall St Helipt CLOUDY 45 44 97 E8 29.76R LaGuardia APRT FOG 45 44 97 NE8 29.75R VSB<1/4 Kennedy INTL CLOUDY 46 46 100 NE8 29.75R FOG Breezy Point N/A 43 N/A N/A NE6 N/A Newark/Liberty DRZL/FOG 46 45 96 N7 29.74R VSB 1/4 Teterboro FOG 46 45 96 CALM 29.74R VSB 1/2 $$ NYZ177-179-078>081-221600- LONG ISLAND NEW YORK CITY SKY/WX TMP DP RH WIND PRES REMARKS Jones Beach N/A 43 N/A N/A NE10 N/A Matinecock PT NOT AVBL Farmingdale CLOUDY 45 45 100 E5 29.74R FOG MacArthur/ISP CLOUDY 45 44 97 NE5 29.74R FOG Shirley CLOUDY 47 46 97 E5 29.76R Westhampton CLOUDY 45 42 89 VRB5 29.77R Southampton NOT AVBL Bridgehampton NOT AVBL East Hampton CLOUDY 43 42 96 E3 29.76R Montauk N/A 43 42 97 VRB3 29.78S $$ NYZ052-065-067-221600- HUDSON VALLEY CITY SKY/WX TMP DP RH WIND PRES REMARKS White Plains FOG 43 42 97 NE5 29.73R VSB 1/4 Newburgh MOSUNNY 45 45 100 CALM 29.75R FOG Montgomery CLOUDY 42 41 96 CALM 29.74R FOG Poughkeepsie FOG 42 41 96 N5 29.75R VSB 1 Albany CLOUDY 41 38 89 N6 29.76S FOG $$ NJZ001-105-106-008-010-013-015-019>022-104-221600- NEW JERSEY CITY SKY/WX TMP DP RH WIND PRES REMARKS Newark/Liberty DRZL/FOG 46 45 96 N7 29.74R VSB 1/4 Teterboro FOG 46 45 96 CALM 29.74R VSB 1/2 Caldwell FOG 44 43 96 CALM 29.75R VSB 1/2 Somerville CLOUDY 45 43 93 N3 29.73R FOG Linden CLOUDY 46 45 99 CALM 29.74S FOG Sussex CLOUDY 42 42 100 SE3 29.73S Andover N/A 42 41 96 CALM 29.73R Trenton CLOUDY 45 45 100 NE5 29.74R FOG Millville FOG 47 47 100 N7 29.70F VSB 1/4 Atlantic City FOG 48 46 93 N7 29.70R VSB 1/8 Wrightstown CLOUDY 46 46 99 N5 29.71R Toms River CLOUDY 47 46 97 E8 29.73R FOG Belmar CLOUDY 46 45 96 NE6 29.74R $$ PAZ047>061-062-071-221600- EASTERN PENNSYLVANIA CITY SKY/WX TMP DP RH WIND PRES REMARKS Philadelphia CLOUDY 47 45 93 VRB6 29.74R FOG Allentown FOG 42 41 96 CALM 29.75R VSB 1/4 Scranton FOG 41 41 100 CALM 29.72R VSB<1/4 $$ CTZ002-004>006-009-010-012-RIZ004-006-007-MAZ004-011-015-221600- SOUTHERN NEW ENGLAND IN CT CITY SKY/WX TMP DP RH WIND PRES REMARKS Bradley INTL CLOUDY 41 41 100 N8 29.77F FOG Hartford CLOUDY 42 41 96 N3 29.78R FOG Danbury SUNNY 46 41 82 N3 29.76R Wtrbury/Oxford PTSUNNY 45 39 81 E7 29.76R Bridgeport FOG 42 40 92 NE9 29.76R VSB 1/4 Meriden MOSUNNY 47 42 83 N6 29.77R HAZE New Haven FOG 42 42 100 CALM 29.77R VSB 1/2 Chester N/A 45 45 100 E5 29.76R Groton PTSUNNY 43 41 93 SE6 29.77S Wilimantic CLOUDY 43 41 93 CALM 29.77F FOG IN RI CITY SKY/WX TMP DP RH WIND PRES REMARKS Providence CLOUDY 43 40 89 CALM 29.80R FOG Block Island NOT AVBL Westerly FOG 42 39 89 SE5 29.78R VSB 3/4 IN MA CITY SKY/WX TMP DP RH WIND PRES REMARKS Boston PTSUNNY 44 40 85 NE7 29.82R Worcester CLOUDY 42 38 85 NE8 29.78F Westfield CLOUDY 38 38 100 N8 29.78R FOG WCI 32 Provincetown CLOUDY 44 42 93 NW6 29.81R Nantucket MOSUNNY 43 42 97 SE3 29.79S $$ ANZ330-335-338-340-345-350-353-355-221600- COASTAL MARINE OBSERVATIONS STATION/POSITION TIME SKY/WX TEMP WIND PRES VSBY WAVE AIR SEA DIR/SP/G HT/PER (UTC) (F) (DEG/KT/KT) (MB) (MI) (FT/S) NY HARB ENTRANCE 1350 44 44 50/ 8/ 10 1006.3 3/13 20 S FIRE ISLAND 1450 45 45 50/ 12/ 14 1006.5 3/11 GREAT SOUTH BAY NOT AVBL 23 SSW MONTAUK P 1350 44 47 80/ 12/ 14 1007.7 3/13 15 E BARNEGAT LI 1430 48 N/A 4/12 HUDSON CANYON 1350 52 51 1005.5 5/12 KINGS POINT 1436 43 39 1006.8 EXECUTION ROCKS 1445 41 40/ 8/ 8 N/A CENTRAL LI SOUND 1430 41 60/ 6/ 8 N/A 0 EASTERN LI SOUND NOT AVBL ROBBINS REEF 1448 45 350/ 2/ 3 1007.5 $$ >>>>>>>>>>>>>>>>>>>>>>>>>>>> KEY <<<<<<<<<<<<<<<<<<<<<<<<<<< > < > SKY/WX - Sky Condition/Present Weather < > TMP - Temperature in Fahrenheit < > DP - Dew Point in Fahrenheit < > RH - Relative Humidity in Percent < > WIND - Direction (from) and Speed in MPH < > PRES - Mean Sea Level Pressure (inches of Hg) < > WCI - Wind Chill Index < > VSB - VISIBILITY IN MILES < > HX - HEAT INDEX < > TC - TEMPERATURE IN CELSIUS < > VRB - VARIABLE WIND DIRECTION < > < >>>>>>>>>>>>>>>>>>>>>>>>>>>> KEY <<<<<<<<<<<<<<<<<<<<<<<<<<<

USA.gov is the U.S. government's official web portal to all federal, state and local government web resources and services.